Weather History for KCNY - March, 2014

Change the Weather History Date:

Monday, March 17, 2014

  Actual Average Record
Temperature  
Mean Temperature 54 °F 45 °F  
Max Temperature 72 °F 59 °F 80 °F (1974)
Min Temperature 35 °F 31 °F 20 °F (1951)
Degree Days  
Heating Degree Days 11 20  
Month to date heating degree days 315 382  
Since 1 July heating degree days 5063 4791  
Cooling Degree Days 0 0  
Month to date cooling degree days 0 0  
Year to date cooling degree days 0 0  
Growing Degree Days 3 (Base 50)    
Moisture  
Dew Point 13 °F    
Average Humidity 28    
Maximum Humidity 48    
Minimum Humidity 7    
Precipitation  
Precipitation 0.00 in 0.02 in 0.89 in (2003)
Month to date precipitation 0.31 0.43  
Year to date precipitation 0.64 1.59  
Sea Level Pressure  
Sea Level Pressure 29.69 in    
Wind  
Wind Speed 17 mph (WNW)    
Max Wind Speed 46 mph    
Max Gust Speed 56 mph    
Visibility 10 miles    
Events      
T = Trace of Precipitation, MM = Missing Value Source: NWS Daily Summary

Daily Weather History Graph

Daily Weather History Graph

Search for Another Location

Airport or City:

Trip Planner

Search our weather history database for the weather conditions in past years. The results will help you decide how hot, cold, wet, or windy it might be!

Date:

Astronomy

Mar. 17, 2014 Rise Set
Actual Time 7:27 AM MDT 7:28 PM MDT
Civil Twilight 7:00 AM MDT 7:54 PM MDT
Nautical Twilight 6:29 AM MDT 8:25 PM MDT
Astronomical Twilight 5:58 AM MDT 8:57 PM MDT
Moon 8:47 PM MDT (3/17) 7:45 AM MDT (3/17)
Length of Visible Light 12h 54m
Length of Day
12h 01m
Full, 99% of the Moon is Illuminated
Mar 17
Full
Mar 23
Last Quarter
Mar 30
New
Apr 7
First Quarter
Apr 15
Full

Hourly Weather History & Observations

Time (MDT) Temp. Windchill Dew Point Humidity Pressure Visibility Wind Dir Wind Speed Gust Speed Precip Events Conditions
12:53 AM 44.1 °F - 15.1 °F 31% 30.03 in 10.0 mi Calm Calm - N/A   Clear
1:53 AM 41.0 °F 39.0 °F 15.1 °F 35% 30.00 in 10.0 mi ENE 3.5 mph - N/A   Clear
2:53 AM 36.0 °F 32.1 °F 16.0 °F 44% 29.98 in 10.0 mi WSW 4.6 mph - N/A   Clear
3:53 AM 42.1 °F - 16.0 °F 35% 29.91 in 10.0 mi Calm Calm - N/A   Clear
4:53 AM 39.9 °F 35.8 °F 17.1 °F 40% 29.87 in 10.0 mi ESE 5.8 mph - N/A   Clear
5:53 AM 39.9 °F - 17.1 °F 40% 29.82 in 10.0 mi Calm Calm - N/A   Clear
6:53 AM 39.9 °F 36.7 °F 18.0 °F 41% 29.78 in 10.0 mi SSE 4.6 mph - N/A   Clear
7:53 AM 37.9 °F 32.1 °F 19.0 °F 47% 29.76 in 10.0 mi SE 8.1 mph - N/A   Clear
8:53 AM 42.1 °F - 19.9 °F 41% 29.75 in 10.0 mi Calm Calm - N/A   Clear
9:53 AM 46.0 °F 41.0 °F 19.9 °F 35% 29.70 in 10.0 mi SE 10.4 mph - N/A   Clear
10:53 AM 48.9 °F - 18.0 °F 29% 29.66 in 10.0 mi ESE 6.9 mph - N/A   Clear
11:53 AM 55.0 °F - 17.1 °F 23% 29.59 in 10.0 mi ESE 5.8 mph - N/A   Clear
12:53 PM 63.0 °F - 17.1 °F 17% 29.49 in 10.0 mi Variable 6.9 mph - N/A   Clear
1:53 PM 70.0 °F - 10.9 °F 10% 29.41 in 10.0 mi West 25.3 mph 33.4 mph N/A   Clear
2:53 PM 70.0 °F - 3.0 °F 7% 29.36 in 10.0 mi West 34.5 mph 49.5 mph N/A   Partly Cloudy
3:53 PM 70.0 °F - 3.0 °F 7% 29.33 in 10.0 mi West 39.1 mph 50.6 mph N/A   Clear
4:53 PM 66.9 °F - 1.9 °F 8% 29.40 in 10.0 mi WNW 31.1 mph 41.4 mph N/A   Clear
5:53 PM 59.0 °F - 15.1 °F 18% 29.46 in 10.0 mi NW 39.1 mph 51.8 mph N/A   Scattered Clouds
6:53 PM 52.0 °F - 17.1 °F 25% 29.55 in 10.0 mi NW 38.0 mph 48.3 mph N/A   Clear
7:53 PM 45.0 °F 34.6 °F 14.0 °F 29% 29.62 in 10.0 mi NW 34.5 mph 43.7 mph N/A   Clear
8:53 PM 41.0 °F 30.0 °F 6.1 °F 24% 29.68 in 10.0 mi NW 28.8 mph 38.0 mph N/A   Clear
9:53 PM 37.9 °F 28.2 °F 3.0 °F 23% 29.76 in 10.0 mi WNW 18.4 mph 29.9 mph N/A   Clear
10:53 PM 37.0 °F 26.2 °F 3.0 °F 24% 29.78 in 10.0 mi WNW 21.9 mph - N/A   Clear
11:53 PM 37.0 °F 26.7 °F 5.0 °F 26% 29.77 in 10.0 mi WNW 19.6 mph - N/A   Clear